• In Deutschland
  • Länderverzeichnis
  • Für 7 Tage
  • Wassertemperatur
  • Satellitenkarten
  • Wetterkarte
  • Widgets
  • user-avatar
    Anmelden

    Stündliche Wetter Singen

    Heute, 18 Oktober, Mittwoch

    Zeit Temperatur Niederschläge Wind Luftdruck Luftfeuchtigkeit
    00:00 +13°C° 0 mm 1 m/S 725 mmHg 66%
    01:00 +12°C° 0 mm 1 m/S 725 mmHg 65%
    02:00 +12°C° 0 mm 1 m/S 724 mmHg 65%
    03:00 +12°C° 0 mm 1 m/S 724 mmHg 65%
    04:00 +11°C° 0 mm 1 m/S 724 mmHg 65%
    05:00 +11°C° 0 mm 1 m/S 723 mmHg 65%
    06:00 +11°C° 0 mm 1 m/S 723 mmHg 66%
    07:00 +10°C° 0 mm 1 m/S 723 mmHg 66%
    08:00 +13°C° 0 mm 1 m/S 723 mmHg 61%
    09:00 +14°C° 0 mm 0 m/S 723 mmHg 57%
    10:00 +16°C° 0 mm 0 m/S 723 mmHg 52%
    11:00 +18°C° 0 mm 0 m/S 723 mmHg 50%
    12:00 +21°C° 0 mm 1 m/S 723 mmHg 47%
    13:00 +22°C° 0 mm 1 m/S 723 mmHg 45%
    14:00 +21°C° 0 mm 1 m/S 722 mmHg 50%
    15:00 +21°C° 0 mm 1 m/S 722 mmHg 55%
    16:00 +20°C° 0 mm 1 m/S 722 mmHg 59%
    17:00 +18°C° 0 mm 1 m/S 722 mmHg 65%
    18:00 +15°C° 0 mm 1 m/S 722 mmHg 71%
    19:00 +13°C° 0 mm 1 m/S 722 mmHg 76%
    20:00 +12°C° 0 mm 1 m/S 722 mmHg 77%
    21:00 +12°C° 0 mm 1 m/S 722 mmHg 79%
    22:00 +11°C° 0 mm 1 m/S 722 mmHg 80%
    23:00 +11°C° 0 mm 1 m/S 722 mmHg 80%

    Morgen, 19 Oktober, Donnerstag

    Zeit Temperatur Niederschläge Wind Luftdruck Luftfeuchtigkeit
    00:00 +11°C° 0 mm 1 m/S 722 mmHg 81%
    01:00 +10°C° 0 mm 1 m/S 722 mmHg 81%
    02:00 +10°C° 0 mm 1 m/S 722 mmHg 81%
    03:00 +10°C° 0 mm 1 m/S 721 mmHg 81%
    04:00 +10°C° 0 mm 1 m/S 721 mmHg 81%
    05:00 +10°C° 0 mm 1 m/S 721 mmHg 81%
    06:00 +10°C° 0 mm 1 m/S 721 mmHg 80%
    07:00 +9°C° 0 mm 1 m/S 721 mmHg 79%
    08:00 +12°C° 0 mm 1 m/S 721 mmHg 73%
    09:00 +14°C° 0 mm 1 m/S 721 mmHg 66%
    10:00 +16°C° 0 mm 1 m/S 721 mmHg 59%
    11:00 +19°C° 0 mm 1 m/S 721 mmHg 55%
    12:00 +20°C° 0 mm 1 m/S 721 mmHg 52%
    13:00 +21°C° 0 mm 1 m/S 721 mmHg 48%
    14:00 +21°C° 0 mm 1 m/S 721 mmHg 53%
    15:00 +20°C° 0 mm 1 m/S 721 mmHg 58%
    16:00 +20°C° 0 mm 1 m/S 720 mmHg 64%
    17:00 +18°C° 0 mm 1 m/S 720 mmHg 70%
    18:00 +15°C° 0 mm 1 m/S 720 mmHg 75%
    19:00 +13°C° 0 mm 1 m/S 720 mmHg 81%
    20:00 +13°C° 0 mm 1 m/S 721 mmHg 83%
    21:00 +12°C° 0 mm 1 m/S 721 mmHg 84%
    22:00 +12°C° 0 mm 1 m/S 721 mmHg 85%
    23:00 +12°C° 0 mm 1 m/S 721 mmHg 85%

    übermorgen, 20 Oktober, Freitag

    Zeit Temperatur Niederschläge Wind Luftdruck Luftfeuchtigkeit
    00:00 +11°C° 0 mm 1 m/S 721 mmHg 85%
    01:00 +11°C° 0 mm 1 m/S 721 mmHg 85%
    02:00 +11°C° 0 mm 1 m/S 721 mmHg 85%
    03:00 +11°C° 0 mm 1 m/S 721 mmHg 85%
    04:00 +11°C° 0 mm 1 m/S 721 mmHg 84%
    05:00 +11°C° 0 mm 1 m/S 721 mmHg 83%
    06:00 +10°C° 0 mm 1 m/S 721 mmHg 83%
    07:00 +10°C° 0 mm 1 m/S 721 mmHg 82%
    08:00 +13°C° 0 mm 1 m/S 721 mmHg 75%
    09:00 +15°C° 0 mm 1 m/S 722 mmHg 68%
    10:00 +18°C° 0 mm 1 m/S 722 mmHg 62%
    11:00 +19°C° 0 mm 1 m/S 722 mmHg 59%
    12:00 +19°C° 0 mm 2 m/S 722 mmHg 56%
    13:00 +20°C° 0 mm 2 m/S 723 mmHg 53%
    14:00 +20°C° 0 mm 2 m/S 723 mmHg 57%
    15:00 +20°C° 0 mm 1 m/S 723 mmHg 62%
    16:00 +20°C° 0 mm 1 m/S 722 mmHg 66%
    17:00 +18°C° 0 mm 1 m/S 723 mmHg 72%
    18:00 +15°C° 0 mm 1 m/S 723 mmHg 78%
    19:00 +13°C° 0 mm 1 m/S 723 mmHg 84%
    20:00 +13°C° 0 mm 1 m/S 723 mmHg 84%
    21:00 +13°C° 0 mm 1 m/S 723 mmHg 85%
    22:00 +12°C° 0 mm 1 m/S 723 mmHg 85%
    23:00 +12°C° 0 mm 1 m/S 723 mmHg 84%

    21 Oktober, Samstag

    Zeit Temperatur Niederschläge Wind Luftdruck Luftfeuchtigkeit
    00:00 +12°C° 0 mm 1 m/S 723 mmHg 83%
    01:00 +12°C° 0 mm 1 m/S 723 mmHg 82%
    02:00 +12°C° 0 mm 1 m/S 723 mmHg 82%
    03:00 +12°C° 0 mm 1 m/S 723 mmHg 81%
    04:00 +12°C° 0 mm 1 m/S 723 mmHg 81%
    05:00 +12°C° 0 mm 1 m/S 723 mmHg 82%
    06:00 +12°C° 0 mm 1 m/S 723 mmHg 83%
    07:00 +11°C° 0 mm 1 m/S 723 mmHg 84%
    08:00 +14°C° 0 mm 1 m/S 723 mmHg 77%
    09:00 +16°C° 0 mm 2 m/S 723 mmHg 71%
    10:00 +18°C° 0 mm 2 m/S 723 mmHg 64%
    11:00 +18°C° 0 mm 2 m/S 723 mmHg 64%
    12:00 +18°C° 0 mm 2 m/S 723 mmHg 63%
    13:00 +19°C° 0 mm 2 m/S 723 mmHg 63%
    14:00 +18°C° 0,3 mm 2 m/S 723 mmHg 69%
    15:00 +17°C° 0,3 mm 3 m/S 723 mmHg 76%
    16:00 +16°C° 0,3 mm 3 m/S 723 mmHg 82%
    17:00 +15°C° 0,2 mm 2 m/S 723 mmHg 86%
    18:00 +14°C° 0,2 mm 2 m/S 724 mmHg 90%
    19:00 +14°C° 0,2 mm 1 m/S 724 mmHg 93%
    20:00 +13°C° 0,2 mm 2 m/S 724 mmHg 93%
    21:00 +13°C° 0,2 mm 2 m/S 724 mmHg 92%
    22:00 +13°C° 0,2 mm 2 m/S 724 mmHg 92%
    23:00 +12°C° 0,9 mm 2 m/S 724 mmHg 92%

    22 Oktober, Sonntag

    Zeit Temperatur Niederschläge Wind Luftdruck Luftfeuchtigkeit
    00:00 +12°C° 0,9 mm 2 m/S 724 mmHg 93%
    01:00 +10°C° 0,9 mm 3 m/S 724 mmHg 94%
    02:00 +10°C° 0,7 mm 3 m/S 724 mmHg 94%
    03:00 +10°C° 0,7 mm 3 m/S 724 mmHg 93%
    04:00 +9°C° 0,7 mm 3 m/S 724 mmHg 93%
    05:00 +9°C° 0,8 mm 3 m/S 724 mmHg 93%
    06:00 +9°C° 0,8 mm 2 m/S 724 mmHg 93%
    07:00 +8°C° 0,8 mm 2 m/S 724 mmHg 94%
    08:00 +9°C° 0,9 mm 2 m/S 724 mmHg 92%
    09:00 +9°C° 0,9 mm 3 m/S 725 mmHg 91%
    10:00 +9°C° 0,9 mm 3 m/S 725 mmHg 89%
    11:00 +9°C° 0,7 mm 3 m/S 725 mmHg 88%
    12:00 +9°C° 0,7 mm 3 m/S 725 mmHg 87%
    13:00 +9°C° 0,7 mm 3 m/S 726 mmHg 86%
    14:00 +9°C° 0,3 mm 3 m/S 726 mmHg 85%
    15:00 +9°C° 0,3 mm 3 m/S 726 mmHg 85%
    16:00 +9°C° 0,3 mm 3 m/S 726 mmHg 84%
    17:00 +8°C° 0,1 mm 3 m/S 726 mmHg 87%
    18:00 +7°C° 0,1 mm 2 m/S 727 mmHg 90%
    19:00 +6°C° 0,1 mm 2 m/S 727 mmHg 94%
    20:00 +6°C° 0,1 mm 2 m/S 728 mmHg 94%
    21:00 +6°C° 0,1 mm 2 m/S 728 mmHg 95%
    22:00 +5°C° 0,1 mm 2 m/S 728 mmHg 95%
    23:00 +5°C° 0 mm 2 m/S 729 mmHg 96%

    23 Oktober, Montag

    Zeit Temperatur Niederschläge Wind Luftdruck Luftfeuchtigkeit
    00:00 +6°C° 0 mm 1 m/S 729 mmHg 96%
    01:00 +5°C° 0 mm 1 m/S 729 mmHg 96%
    02:00 +5°C° 0 mm 1 m/S 729 mmHg 96%
    03:00 +5°C° 0 mm 1 m/S 729 mmHg 96%
    04:00 +5°C° 0 mm 1 m/S 729 mmHg 96%
    05:00 +5°C° 0 mm 1 m/S 730 mmHg 95%
    06:00 +4°C° 0 mm 1 m/S 730 mmHg 95%
    07:00 +4°C° 0 mm 1 m/S 730 mmHg 95%
    08:00 +6°C° 0 mm 1 m/S 730 mmHg 90%
    09:00 +8°C° 0 mm 1 m/S 730 mmHg 85%
    10:00 +9°C° 0 mm 1 m/S 730 mmHg 80%
    11:00 +11°C° 0 mm 1 m/S 730 mmHg 74%
    12:00 +12°C° 0 mm 1 m/S 729 mmHg 69%
    13:00 +13°C° 0 mm 1 m/S 729 mmHg 63%
    14:00 +13°C° 0 mm 1 m/S 729 mmHg 65%
    15:00 +13°C° 0 mm 1 m/S 729 mmHg 66%
    16:00 +11°C° 0 mm 0 m/S 728 mmHg 68%
    17:00 +10°C° 0 mm 0 m/S 728 mmHg 74%
    18:00 +9°C° 0 mm 1 m/S 729 mmHg 80%
    19:00 +7°C° 0 mm 1 m/S 729 mmHg 86%
    20:00 +7°C° 0 mm 1 m/S 729 mmHg 86%
    21:00 +6°C° 0 mm 1 m/S 729 mmHg 87%
    22:00 +6°C° 0 mm 1 m/S 729 mmHg 87%
    23:00 +6°C° 0 mm 1 m/S 728 mmHg 87%
    Mehr zeigen